Theta_e
312 313 313 313 314 315 315 315 313 308 307 306 308 309 310 310 311 310 310 309 308 304 303 301 301 300 296 295 294 294 293 294 294 295 295 295 295 295
312 312 313 314 314 314 315 315 315 311 310 306 304 306 307 308 307 307 307 307 306 303 301 299 298 296 295 294 294 292 291 293 293 294 294 293 293 293
312 312 313 313 313 313 314 314 312 312 308 302 304 304 304 304 304 305 305 304 302 300 298 297 296 295 294 293 293 292 292 292 292 292 292 291 292 292
311 312 313 313 313 312 313 313 312 312 310 300 300 300 302 302 303 302 301 301 300 299 297 295 294 293 292 292 293 292 291 291 291 290 289 290 290 290
311 312 312 312 311 311 312 312 312 311 310 307 298 298 298 298 299 300 299 298 297 295 294 292 292 291 290 292 291 290 289 289 288 288 289 289 289 289
311 311 312 310 310 310 311 311 311 310 307 306 300 297 297 295 297 296 294 294 293 291 291 291 290 288 287 289 288 288 286 285 287 288 288 288 288 288
311 310 312 312 312 311 311 310 310 307 304 301 297 294 293 291 293 291 290 290 290 289 289 290 289 287 286 285 285 285 284 285 287 287 287 287 286 286
309 310 311 310 311 311 311 310 310 308 302 300 296 295 293 292 292 291 290 288 288 289 288 287 287 286 285 285 284 284 284 286 286 286 285 285 285 286
309 308 309 310 310 309 309 310 309 308 308 307 300 297 295 296 295 291 291 290 288 287 287 286 285 284 284 284 283 283 285 284 284 284 284 284 284 284
308 309 308 307 308 307 305 302 301 301 303 303 303 302 300 297 295 294 292 290 286 284 284 283 283 283 283 283 282 284 283 282 282 283 283 283 283 283
306 307 308 306 306 306 303 299 297 296 298 298 300 298 298 297 295 294 291 288 283 282 283 283 282 282 282 282 283 284 282 281 281 281 281 281 282 282
303 304 306 304 303 305 302 298 293 291 292 292 291 290 291 292 293 294 293 287 283 281 282 282 281 281 281 281 282 282 282 281 281 280 279 280 281 281
299 299 299 299 298 300 300 297 294 291 289 290 289 288 288 288 287 286 286 285 284 282 281 281 280 280 280 280 281 281 281 281 280 279 279 280 280 280
296 296 296 294 293 295 295 290 290 290 287 285 285 284 284 284 284 284 284 284 283 282 281 281 280 280 279 279 279 281 281 280 279 278 278 280 280 280
295 294 293 291 291 290 289 287 289 288 285 283 282 281 282 282 281 282 281 281 281 280 280 280 280 279 279 279 278 279 278 279 279 278 278 279 280 280
292 291 291 290 289 287 285 285 287 287 285 282 281 281 280 281 281 281 281 280 280 278 279 279 279 279 279 279 278 278 279 278 278 278 277 278 280 279
290 288 286 285 284 283 284 284 283 283 282 281 281 280 280 280 280 280 280 280 279 277 278 278 279 280 279 279 279 279 279 278 277 277 278 278 280 280
287 285 284 284 283 282 282 282 282 282 281 281 281 280 280 279 279 279 279 278 277 277 277 278 278 280 280 279 279 279 278 277 276 277 277 276 279 280
285 284 283 282 282 282 282 281 280 281 281 281 280 280 279 278 278 277 277 276 276 277 277 277 276 276 273 270 279 278 277 276 276 276 276 276 276 280
284 283 282 282 282 282 281 281 281 281 281 280 280 279 279 278 277 277 276 276 276 277 277 277 277 276 274 274 275 278 277 276 275 275 276 276 277 278
283 283 282 282 282 282 281 281 281 280 280 280 279 278 277 277 277 277 276 276 276 276 277 277 276 276 276 276 276 276 278 277 275 275 275 275 276 276
285 284 282 282 282 282 281 280 280 280 279 279 278 277 277 277 277 277 276 276 276 276 277 276 277 277 276 275 275 275 276 278 279 277 276 276 276 276
284 283 282 282 282 281 281 280 280 279 279 278 278 277 276 276 275 275 275 276 276 276 277 277 277 276 276 275 274 275 275 275 275 277 278 277 276 276
Wind_Speed
26 23 25 27 28 28 26 20 9 4 5 11 8 18 20 18 22 28 35 32 27 22 19 18 19 14 12 11 11 10 9 8 8 9 9 10 12 13
26 24 24 27 28 28 28 23 22 13 3 11 13 9 16 17 21 25 27 25 24 23 22 19 16 13 11 11 12 11 9 8 8 9 10 11 12 13
26 26 26 27 28 27 25 24 23 18 4 4 10 11 14 18 22 23 23 21 20 19 15 14 13 11 11 10 10 8 6 7 8 8 10 11 13 14
25 26 27 27 29 26 28 26 22 24 12 8 12 12 12 18 22 21 20 20 19 17 14 11 10 9 10 9 9 7 7 7 7 8 11 12 14 15
27 26 26 29 28 27 28 27 25 21 21 14 10 14 9 19 21 20 20 19 16 14 11 10 10 9 8 7 7 6 6 7 8 9 11 12 14 17
30 30 29 30 28 30 28 27 25 24 22 19 12 13 13 17 21 24 20 19 17 15 14 11 10 9 8 7 9 10 9 8 8 8 10 13 15 17
29 27 29 32 31 32 30 29 25 24 23 20 14 9 12 17 21 20 15 20 15 14 13 10 10 10 9 10 9 8 8 7 6 9 10 14 16 18
27 27 27 24 23 24 27 26 27 28 23 18 14 11 16 18 21 25 22 12 5 11 10 10 10 9 9 8 8 8 6 5 7 9 13 16 18 18
25 27 31 26 24 24 24 21 22 23 21 25 23 19 20 28 28 25 22 15 6 8 12 7 8 8 8 8 7 6 5 6 8 11 14 16 17 19
24 27 26 27 24 25 22 21 18 15 14 16 19 18 18 21 22 23 24 17 11 9 8 4 5 5 6 8 6 7 6 5 10 13 15 14 18 22
19 20 23 25 24 28 29 27 21 15 12 12 13 14 13 17 20 19 21 21 4 4 5 4 3 2 5 4 8 11 8 9 14 17 14 16 20 21
15 17 21 26 27 25 29 30 29 24 30 30 29 25 23 20 17 14 21 21 10 4 6 4 2 2 1 1 6 12 11 10 18 15 12 21 18 20
19 20 21 26 26 27 26 28 32 31 29 30 30 27 24 21 17 15 15 10 10 6 7 5 4 2 2 2 3 5 5 17 15 12 24 21 20 17
23 23 27 27 26 26 27 30 34 33 33 32 30 26 25 22 19 16 13 9 7 10 9 5 5 3 2 3 3 6 13 13 12 18 25 24 23 20
26 31 29 29 27 29 32 31 34 33 31 28 27 26 24 23 21 20 17 15 15 12 8 5 4 2 3 4 6 10 14 14 8 27 27 27 24 23
32 30 30 34 34 33 27 26 29 29 30 31 29 27 23 21 19 17 18 15 14 11 7 5 4 6 7 6 8 10 8 10 25 27 28 27 23 21
37 34 30 28 28 28 27 27 27 26 29 30 29 26 23 21 18 14 13 9 9 7 6 5 6 5 4 6 4 5 13 18 23 26 28 30 27 24
28 25 22 22 23 24 25 26 25 26 28 27 26 24 23 20 18 13 11 12 13 12 10 10 13 8 5 2 5 9 16 20 24 25 22 23 31 29
24 21 21 22 22 23 27 27 25 25 25 24 23 22 21 19 18 17 15 14 15 13 12 12 14 15 5 2 6 7 17 22 25 27 21 19 24 30
22 22 22 24 26 27 27 27 27 25 23 22 21 21 19 20 20 18 14 16 14 13 11 11 12 10 5 3 5 14 13 19 21 24 25 25 26 24
23 25 26 27 27 26 26 27 27 25 23 22 21 19 18 20 18 17 15 12 12 12 12 10 10 7 5 5 8 12 21 21 14 14 19 22 18 16
25 25 25 25 25 25 26 26 25 23 22 21 20 18 17 17 18 16 13 13 11 9 9 8 8 7 8 8 11 19 24 28 21 16 11 10 10 9
23 24 25 24 24 25 26 24 23 23 20 20 19 18 17 17 15 14 13 11 9 9 9 10 11 11 10 10 11 17 22 28 28 27 24 25 18 17
Wind_Direction
252 248 243 242 241 240 229 212 178 176 221 223 201 218 220 221 223 219 207 202 199 182 183 194 205 222 234 254 258 274 278 282 290 294 300 303 304 303
254 246 238 230 233 236 226 224 232 202 179 203 203 200 208 214 219 210 204 205 208 196 202 204 216 231 247 253 262 264 267 280 288 290 298 302 304 304
254 243 236 235 232 230 226 219 215 202 153 182 197 203 198 209 204 206 205 201 197 195 200 211 225 232 242 243 245 250 270 281 285 292 300 305 306 305
247 240 233 228 228 231 220 209 213 220 182 154 183 175 187 203 207 199 196 197 197 198 203 213 224 235 243 235 236 252 269 277 282 294 301 307 304 302
242 234 227 222 217 214 215 210 209 210 206 180 165 178 175 189 188 195 191 192 194 202 197 205 226 240 242 225 242 259 264 266 287 297 304 304 305 303
239 234 236 226 213 210 207 206 208 206 202 185 170 167 175 182 190 180 172 184 183 195 204 215 225 232 228 228 231 252 271 282 295 298 304 306 305 305
225 231 226 227 228 216 202 201 201 198 185 177 164 163 165 164 180 178 165 177 180 193 204 218 230 235 241 246 252 263 277 294 289 307 310 311 309 310
229 226 229 218 220 216 209 212 206 197 179 173 173 169 177 174 179 174 163 160 174 206 206 216 230 241 244 242 254 269 288 273 301 311 317 313 311 309
225 211 209 213 211 203 196 202 205 207 214 205 189 189 181 195 188 176 174 172 144 163 192 211 228 237 242 254 264 276 228 274 310 323 320 314 312 311
243 215 210 197 191 175 166 163 162 170 185 196 206 204 204 196 189 187 180 162 140 147 176 181 211 232 242 266 259 184 236 297 325 325 324 320 315 314
207 202 195 175 178 177 165 149 140 136 140 155 156 159 154 169 177 169 164 153 123 157 163 176 193 269 273 263 197 211 240 309 321 325 325 325 319 314
179 184 192 175 170 175 165 152 126 123 128 126 122 120 130 142 159 178 172 160 130 127 176 182 159 345 21 189 214 234 263 297 318 320 318 327 324 322
158 157 161 160 159 165 165 161 150 147 135 131 126 123 124 129 135 141 152 167 144 108 154 168 141 109 11 305 281 266 255 324 318 323 335 337 334 328
144 141 141 140 140 151 152 138 142 141 134 127 125 123 122 120 122 131 138 139 130 130 136 142 132 106 37 341 318 317 319 328 323 336 337 339 342 340
138 138 134 128 123 123 128 130 141 140 134 124 121 125 126 126 127 123 121 119 114 109 104 92 72 46 348 294 296 304 326 336 341 338 340 339 338 342
124 125 126 124 122 122 124 129 137 141 143 133 128 129 129 131 129 131 127 123 113 98 81 52 21 347 331 303 287 310 344 331 335 341 336 334 340 346
126 123 119 118 117 120 121 125 132 138 137 136 134 134 131 130 127 136 133 122 103 100 80 49 11 346 320 308 309 340 339 334 338 338 339 335 339 348
125 122 116 117 118 120 123 127 134 139 140 140 138 137 136 133 130 129 124 116 109 98 72 40 26 38 60 26 349 341 337 332 336 339 344 334 330 344
116 114 114 118 120 125 131 137 135 141 142 139 139 138 134 128 131 124 119 116 106 90 74 52 40 40 43 344 350 335 336 336 337 337 337 329 314 332
118 118 119 125 133 137 141 141 140 141 141 140 139 139 138 136 134 125 116 114 106 95 78 54 34 22 359 267 304 337 0 344 336 326 329 331 328 333
127 127 136 142 143 144 144 144 144 144 144 143 141 140 138 138 130 127 116 106 104 87 64 47 25 9 20 11 351 343 3 10 355 331 327 327 327 322
139 142 150 148 147 146 145 143 142 144 145 146 144 143 142 143 135 133 129 114 99 73 61 53 46 49 45 29 1 354 357 5 17 27 17 358 331 323
151 152 151 149 148 148 150 151 149 149 150 148 147 148 149 149 145 135 125 113 106 75 55 60 51 48 38 21 3 358 0 0 2 1 13 10 356 341